FREGAT R/B, 42720

Orbit data source: Space-Track

FREGAT R/B, 42720 is space debris originally from a launch on Thu, 25 May 2017 UTC launched from the Plesetsk Missile And Space Complex (PKMTR). Debris objects in space refer to the collection of defunct objects orbiting the Earth. Examples of debris include non-operational satellites, rocket bodies, and fragments generated from explosions, collisions, or faulty payload assembly.

Loading next visibility...
FREGAT R/B details
Identifier
42720, 2017-027B
Orbit
Molniya
Last TLE update3 days ago
Origin
Flag of CISLavochkin (CIS)
ManufacturerLavochkin
MissionSpacecraft
Bus & MotorFREGAT, Unknown motor
Mass1,000 kg wet, 1,000 kg dry
Launch date (UTC)
2017-05-25 (8 years ago)
Launch vehicleUnknown
Launch site
Plesetsk Missile And Space Complex (PKMTR)
Object type
Payload
Rocket body
Debris
Shape & HBRIrr, 3.48 m
Radar Cross Section12.110 m², Large (>1 m²)

Expand to show TLE details & history

TLE from 3 days ago
0 FREGAT R/B
1 42720U 17027B   24359.17630596  .00000014  00000-0  38142-3 0  9998
2 42720  62.8431 308.9762 7308584 263.4073  16.8466  2.01898792 55924
Epoch: 2024-12-24T04:13Z
Definitive object data (Epoch: 2024-12-24T04:13:52.834Z)
Latitude0.00004°
Longitude152.2508°
Altitude7,077.02 km
Speed6.647 km/s
True Right ascension20h 35m 38s
True Declination0° 00' 00"
Sunlit
Object was in daylight at TLE epoch
Visualization TLE readout
Latitude62.57254°
Longitude-109.26541°
Altitude37,378.876 km
Speed1.775 km/s
Apparent Right ascension04h 05m 45s
Apparent Declination60° 21' 19"
Sunlit
Object is in daylight
Visualization observer readout
Local Sidereal Time21:55:46
Azimuth35.989° NE
Elevation32.763°
Doppler factor1
Orbital elements
Apogee altitude39,389.487 km
Perigee altitude738.547 km
Semi-major axis26,442.154 km
Eccentricity0.7308584
Inclination62.8431°
RAAN308.9762°
Arg. of periapsis263.4073°
True anomaly96.84936°
Mean anomaly16.8466°
Eccentric anomaly47.93315°
Mean motion0.50478 °/min
BSTAR0.00038142
Orbital period713.19 mins
Loading maneuver chart data...
Loading historical data...
Loading historical data...
Loading historical data...
Loading historical data...
Loading historical data...
Loading historical data...
Loading historical data...
Other satellites on launch #27 in the year 2017 (2017-05-25 UTC)

FREGAT R/B Visibility forecast

Observer location: undefined°, undefined

Span
Click to sort rows by Start time (UTC) header in descending order
Start Az.
Max El. time (UTC)
Max El. Az.
Max El.
End time (UTC)
End Az.
192 mins2024-12-26 22:32:36.285Z36° NE2024-12-26 22:32:36.285Z36° NE28.421°2024-12-27 01:44:36.285Z59.404° ENE
515 mins2024-12-27 04:47:36.285Z301.568° NW2024-12-27 09:51:36.285Z328.729° NNW21.172°2024-12-27 13:22:36.285Z308.373° NW
351 mins2024-12-27 16:41:36.285Z58.202° ENE2024-12-27 21:20:36.285Z35.616° NE28.125°2024-12-27 22:32:36.285Z36.015° NE
|